Weather Roundup
Issued by NWS Chicago, IL

Home | Current Version | Previous Version | Graphics & Text | Print | Product List | Glossary On
Versions: 1 2 3 4 5 6 7 8 9 10 11 12 13 14 15 16 17 18 19 20 21 22 23 24 25 26 27 28 29 30 31 32 33 34 35 36 37 38 39 40 41 42 43 44 45 46 47 48 49 50
000
NZUS59 KLOT 051108
HRRLOT

CHICAGO AREA WEATHER ROUNDUP
NATIONAL WEATHER SERVICE CHICAGO/ROMEOVILLE IL
600 AM CDT THU MAY 05 2016

NOTE: "FAIR" INDICATES FEW OR NO CLOUDS BELOW 12,000 FEET WITH NO
SIGNIFICANT WEATHER AND/OR OBSTRUCTIONS TO VISIBILITY.

* THESE STATIONS ARE NOT UNDER NWS QUALITY CONTROL. THEY ALSO MAY NOT
  REPORT WEATHER SUCH AS PRECIPITATION OR FOG.

ILZ005-006-012>014-019>023-051200-
NORTHEAST ILLINOIS

CITY           SKY/WX    TMP DP  RH WIND       PRES   REMARKS
OHARE          PTCLDY    41  33  73 N12       29.93R
MIDWAY         CLOUDY    42  34  73 N15       29.92R
AURORA         CLEAR     40  34  79 N9        29.93R
LANSING*       CLOUDY    41  36  82 N13G21    29.91R
JOLIET*        PTCLDY    44  36  73 N10G18    29.92R
WAUKEGAN       CLEAR     39  33  79 N8        29.93R
DUPAGE AIRPORT CLEAR     39  32  76 N10       29.92R
WHEELING       PTCLDY    40  33  76 N10       29.94R
KANKAKEE*      CLOUDY    42  36  76 N9        29.91R
MORRIS*        PTCLDY    40  35  83 N5        29.92R
LEWIS AIRPORT* MOCLDY    42  33  72 N12       29.92R
$$

WIZ051-052-058>065-066-070>072-051200-
SOUTHEAST WISCONSIN

CITY           SKY/WX    TMP DP  RH WIND       PRES   REMARKS
MILWAUKEE      MOCLDY    41  32  70 N9        29.95R
KENOSHA*       PTCLDY    39  32  76 N6        29.94R
RACINE*        PTCLDY    41  33  73 N15       29.96R
BURLINGTON     CLEAR     36  31  85 NW7       29.95S
$$

INZ001>003-010>013-019-020-051200-
NORTHWEST INDIANA

CITY           SKY/WX    TMP DP  RH WIND       PRES   REMARKS
GARY*          CLOUDY    43  43 100 N17G29    29.91R
MICHIGAN CITY* NOT AVBL
RENSSELAER*    NOT AVBL
VALPARAISO     CLOUDY    41  39  93 N14G21    29.87R
$$

LMZ740>746-051200-
SOUTHERN LAKE MICHIGAN

STATION/POSITION TIME  SKY/WX   TEMP WIND        PRES    VSBY
                                AIR  DIR/SP/G
                 (UTC)          (F)  (DEG/KT/KT) (MB)    (MI)
HARRISON CRIB    1010            42  360/ 24/ 27   N/A
BURNHAM HARBOR   1100            41  350/ 17/ 22   N/A
CALUMET HARBOR   1000            41  340/ 19/ 22 1011.7R
BURNS HARBOR     1014            43   10/ 18/ 24 1012.2R
MICHIGAN CITY    1000            42  360/ 23/ 25   N/A
$$

ABBREVIATIONS USED IN REMARKS
   TC - TEMPERATURE IN CELSIUS
  WCI - WIND CHILL INDEX
   HX - HEAT INDEX
  VSB - VISIBILITY
$$




USA.gov is the U.S. government's official web portal to all federal, state and local government web resources and services.